Total_Precipitation_Accumulation
0.12 0.10 0.14 0.13 0.12 0.13 0.16 0.20 0.22 0.20 0.17 0.14 0.09 0.07 0.05 0.04 0.04 0.06 0.07 0.10 0.12 0.17 0.20 0.21 0.24 0.25 0.23 0.22 0.21 0.21 0.23 0.27 0.29 0.28 0.34 0.41 0.46 0.57 0.75 0.84 0.93 0.66 0.51
0.05 0.08 0.13 0.13 0.11 0.13 0.16 0.17 0.20 0.19 0.16 0.15 0.13 0.09 0.07 0.06 0.06 0.07 0.09 0.12 0.15 0.18 0.18 0.16 0.16 0.17 0.15 0.17 0.17 0.18 0.22 0.29 0.40 0.50 0.56 0.54 0.59 0.71 0.81 0.79 0.95 0.58 0.47
0.03 0.05 0.11 0.14 0.11 0.12 0.13 0.14 0.17 0.17 0.16 0.15 0.13 0.12 0.09 0.08 0.08 0.09 0.12 0.13 0.15 0.17 0.16 0.14 0.13 0.13 0.13 0.12 0.14 0.17 0.22 0.34 0.55 0.79 1.02 0.80 0.47 0.66 0.75 0.69 0.58 0.39 0.39
0.03 0.03 0.05 0.12 0.12 0.11 0.11 0.13 0.15 0.16 0.15 0.14 0.13 0.12 0.11 0.12 0.12 0.12 0.13 0.15 0.17 0.17 0.16 0.15 0.12 0.12 0.11 0.11 0.14 0.20 0.28 0.41 0.63 1.05 1.32 0.74 0.35 0.41 0.50 0.49 0.41 0.30 0.31
0.07 0.05 0.05 0.09 0.11 0.12 0.11 0.13 0.14 0.15 0.15 0.15 0.14 0.13 0.13 0.14 0.14 0.16 0.17 0.20 0.19 0.17 0.16 0.15 0.13 0.10 0.10 0.11 0.15 0.22 0.33 0.45 0.72 1.07 0.94 0.76 0.65 0.42 0.37 0.40 0.35 0.28 0.26
0.11 0.09 0.10 0.12 0.12 0.12 0.11 0.11 0.13 0.13 0.13 0.14 0.15 0.15 0.15 0.15 0.17 0.20 0.22 0.21 0.20 0.18 0.14 0.14 0.12 0.09 0.10 0.12 0.17 0.25 0.37 0.55 0.78 0.66 0.60 0.65 0.62 0.46 0.37 0.46 0.41 0.33 0.29
0.18 0.15 0.16 0.18 0.18 0.16 0.14 0.14 0.15 0.14 0.14 0.15 0.17 0.17 0.16 0.18 0.20 0.21 0.22 0.21 0.21 0.18 0.14 0.14 0.16 0.13 0.15 0.18 0.23 0.30 0.43 0.64 0.66 0.48 0.56 0.79 0.70 0.48 0.46 0.63 0.65 0.52 0.38
0.31 0.24 0.20 0.24 0.25 0.21 0.20 0.20 0.19 0.17 0.18 0.17 0.17 0.17 0.17 0.19 0.20 0.19 0.21 0.23 0.22 0.20 0.16 0.14 0.14 0.16 0.21 0.23 0.27 0.34 0.44 0.52 0.42 0.46 0.56 0.68 0.56 0.52 0.62 0.83 0.88 0.73 0.56
0.37 0.36 0.31 0.25 0.24 0.25 0.28 0.29 0.27 0.23 0.24 0.22 0.18 0.17 0.17 0.20 0.21 0.21 0.22 0.27 0.25 0.22 0.22 0.21 0.17 0.16 0.18 0.21 0.25 0.30 0.41 0.51 0.53 0.58 0.61 0.58 0.43 0.47 0.67 0.85 0.80 0.75 0.66
0.55 0.50 0.48 0.42 0.37 0.30 0.29 0.33 0.34 0.31 0.30 0.26 0.23 0.21 0.23 0.26 0.27 0.28 0.26 0.31 0.33 0.30 0.30 0.31 0.27 0.24 0.26 0.30 0.36 0.40 0.48 0.44 0.60 0.60 0.74 0.76 0.53 0.61 0.86 0.97 0.86 0.79 0.73
0.81 0.70 0.60 0.54 0.48 0.40 0.31 0.30 0.35 0.36 0.36 0.32 0.35 0.34 0.38 0.51 0.61 0.63 0.60 0.64 0.62 0.59 0.56 0.54 0.51 0.48 0.43 0.36 0.50 0.68 0.54 0.38 0.64 0.73 0.83 0.83 0.69 0.86 1.15 1.20 1.13 0.99 0.89
1.05 0.77 0.69 0.57 0.51 0.42 0.34 0.42 0.50 0.52 0.54 0.52 0.64 0.69 0.86 1.04 1.05 0.83 0.99 1.08 1.04 1.08 0.97 0.93 1.10 0.93 0.72 0.63 1.04 1.40 0.68 0.51 0.62 0.68 0.72 0.77 1.02 1.31 1.53 1.42 1.28 1.20 1.08
1.05 1.08 1.03 0.84 0.72 0.65 0.68 0.60 0.65 0.76 0.91 0.89 0.89 1.03 1.29 1.21 1.04 0.94 1.03 1.33 1.48 1.55 1.48 1.54 1.63 1.28 1.26 1.43 1.58 1.49 0.98 0.89 0.88 0.90 0.88 1.13 1.49 1.78 1.88 1.65 1.49 1.41 1.31
1.41 1.59 1.71 1.41 1.31 1.17 1.02 0.90 0.81 0.82 1.00 1.15 1.32 1.37 1.53 1.59 1.49 1.34 1.35 1.52 1.69 1.84 2.17 2.11 2.00 1.84 1.79 1.71 1.65 1.46 1.31 1.30 1.19 1.32 1.55 1.50 1.63 1.90 2.08 1.92 1.71 1.62 1.55
2.03 2.17 2.39 1.99 1.83 1.72 1.69 1.51 1.23 1.25 1.32 1.42 1.64 1.75 1.84 2.01 2.02 1.95 1.86 1.78 1.64 1.78 2.12 2.32 2.21 2.24 2.16 2.01 1.82 1.66 1.55 1.51 1.44 1.54 1.69 1.90 1.89 1.87 2.01 2.14 2.00 1.82 1.71
2.58 2.67 2.78 2.62 2.56 2.40 2.18 2.13 1.99 1.66 1.65 1.63 1.71 1.72 1.91 2.14 2.40 2.48 2.37 2.20 1.89 1.81 1.90 2.22 2.33 2.47 2.37 2.24 1.69 1.59 1.60 1.63 1.66 1.66 1.75 2.23 2.26 1.89 1.80 1.94 2.09 2.11 1.97
3.47 3.31 3.28 3.22 3.38 3.20 2.81 2.50 2.22 2.04 1.98 2.02 2.03 1.96 2.09 2.32 2.52 2.53 2.33 1.98 1.76 1.80 1.90 1.85 1.92 2.22 2.03 1.89 1.73 1.82 1.83 1.74 1.66 1.65 1.73 2.09 2.12 1.77 1.57 1.58 1.78 1.95 2.06
4.24 4.10 3.87 3.45 3.61 3.60 3.33 3.07 2.75 2.46 2.43 2.28 2.07 1.96 1.98 2.19 2.16 2.21 1.87 1.49 1.54 1.74 1.80 1.82 1.79 1.91 1.90 1.96 1.97 1.92 1.87 1.74 1.46 1.37 1.29 1.34 1.51 1.30 1.39 1.56 1.56 1.57 1.84
4.48 4.65 4.63 4.47 4.12 3.89 3.69 3.49 3.27 3.05 2.66 2.24 2.06 1.93 1.77 1.66 1.62 1.71 1.47 1.36 1.41 1.55 1.61 1.56 1.75 1.88 1.81 1.87 1.82 1.76 1.43 1.27 1.13 1.00 0.97 0.91 0.99 1.08 1.10 1.23 1.30 1.35 1.71
4.35 4.84 5.04 5.01 4.61 4.13 3.66 3.25 3.12 2.93 2.60 2.32 2.08 1.84 1.54 1.38 1.33 1.50 1.39 1.26 1.35 1.46 1.48 1.62 1.76 1.84 1.63 1.59 1.46 1.26 1.03 0.78 0.73 0.68 0.60 0.67 0.73 0.73 0.83 0.98 1.22 1.10 1.49
4.05 4.66 4.76 4.94 4.39 3.71 3.16 2.76 2.59 2.35 2.06 2.00 1.87 1.68 1.55 1.38 1.32 1.45 1.31 1.23 1.20 1.27 1.26 1.37 1.48 1.51 1.27 1.45 1.63 1.19 0.83 0.63 0.56 0.44 0.43 0.49 0.53 0.60 0.78 1.02 1.20 1.22 1.34
3.51 4.16 4.17 3.80 3.49 3.04 2.56 2.35 2.18 2.07 1.82 1.63 1.45 1.34 1.21 1.12 1.13 1.17 1.16 1.03 1.02 1.10 1.07 1.14 1.28 1.29 1.14 1.35 1.54 1.50 1.15 0.89 0.69 0.44 0.44 0.44 0.51 0.64 0.71 0.82 1.13 1.30 1.29
3.16 3.25 2.82 2.51 2.47 2.38 2.12 1.99 1.94 1.88 1.71 1.40 1.12 0.98 0.92 0.88 0.85 0.83 0.84 0.86 0.92 0.88 0.93 1.01 1.16 1.31 1.19 1.14 1.32 1.51 1.31 1.02 0.85 0.64 0.58 0.62 0.69 0.80 0.84 0.98 1.10 1.21 1.30
2.36 2.23 2.06 1.95 1.91 2.03 1.99 1.78 1.63 1.35 1.22 1.04 0.86 0.83 0.84 0.77 0.71 0.65 0.65 0.76 0.83 0.85 0.95 0.84 0.90 1.09 1.19 1.05 1.08 1.14 1.19 1.24 1.21 0.96 0.69 0.61 0.69 0.75 0.78 0.80 0.91 1.07 1.17
1.65 1.65 1.54 1.74 1.82 1.83 1.79 1.72 1.65 1.39 1.18 1.05 0.99 1.00 0.92 0.83 0.72 0.63 0.60 0.62 0.71 0.81 0.88 0.87 0.91 0.92 0.98 0.95 0.93 0.94 1.02 1.13 1.12 1.09 0.89 0.69 0.67 0.61 0.65 0.72 0.82 0.89 1.00
1.00 1.07 1.14 1.35 1.54 1.58 1.54 1.54 1.54 1.42 1.26 1.09 0.99 0.93 0.83 0.78 0.71 0.63 0.61 0.64 0.63 0.65 0.70 0.76 0.80 0.82 0.87 0.89 0.87 0.90 0.99 0.99 0.98 1.10 1.00 0.84 0.77 0.64 0.69 0.76 0.88 0.97 0.99